TimeEDT,TemperatureF,Dew PointF,Humidity,Sea Level PressureIn,VisibilityMPH,Wind Direction,Wind SpeedMPH,Gust SpeedMPH,PrecipitationIn,Events,Conditions,WindDirDegrees,DateUTC
12:05 AM,73.0,72.0,96,30.20,2.5,Calm,Calm,-,N/A,,Mostly Cloudy,0,2013-07-15 04:05:00
12:12 AM,73.0,72.0,96,30.20,6.0,Calm,Calm,-,N/A,,Scattered Clouds,0,2013-07-15 04:12:00
12:36 AM,72.0,71.1,97,30.19,1.5,Calm,Calm,-,N/A,,Mostly Cloudy,0,2013-07-15 04:36:00
12:40 AM,73.0,71.1,93,30.19,0.8,Calm,Calm,-,N/A,,Mostly Cloudy,0,2013-07-15 04:40:00
12:49 AM,73.4,71.6,94,30.19,1.5,Calm,Calm,-,N/A,,Mostly Cloudy,0,2013-07-15 04:49:00
12:52 AM,73.0,71.1,93,30.19,3.0,Calm,Calm,-,N/A,,Overcast,0,2013-07-15 04:52:00
1:29 AM,73.0,72.0,96,30.19,1.8,Calm,Calm,-,N/A,,Overcast,0,2013-07-15 05:29:00
1:38 AM,73.0,72.0,96,30.18,3.0,Calm,Calm,-,N/A,,Mostly Cloudy,0,2013-07-15 05:38:00
1:52 AM,72.0,71.1,97,30.18,3.0,Calm,Calm,-,N/A,,Scattered Clouds,0,2013-07-15 05:52:00
1:54 AM,72.0,71.1,97,30.18,1.2,Calm,Calm,-,N/A,,Scattered Clouds,0,2013-07-15 05:54:00
2:02 AM,72.0,70.0,93,30.18,0.5,Calm,Calm,-,N/A,Fog,Fog,0,2013-07-15 06:02:00
2:26 AM,71.1,70.0,96,30.18,0.5,Calm,Calm,-,N/A,Fog,Fog,0,2013-07-15 06:26:00
2:41 AM,71.1,70.0,96,30.18,1.0,Calm,Calm,-,N/A,,Mostly Cloudy,0,2013-07-15 06:41:00
2:52 AM,72.0,70.0,93,30.18,1.5,Calm,Calm,-,N/A,,Mostly Cloudy,0,2013-07-15 06:52:00
2:55 AM,72.0,71.1,97,30.18,3.0,Calm,Calm,-,N/A,,Scattered Clouds,0,2013-07-15 06:55:00
3:20 AM,71.1,70.0,96,30.18,1.8,Calm,Calm,-,N/A,,Partly Cloudy,0,2013-07-15 07:20:00
3:23 AM,71.1,70.0,96,30.18,0.8,Calm,Calm,-,N/A,,Scattered Clouds,0,2013-07-15 07:23:00
3:52 AM,70.0,69.1,97,30.18,0.8,Calm,Calm,-,N/A,,Mostly Cloudy,0,2013-07-15 07:52:00
3:59 AM,70.0,69.1,97,30.18,1.2,Calm,Calm,-,N/A,,Mostly Cloudy,0,2013-07-15 07:59:00
4:07 AM,71.1,70.0,96,30.18,2.0,Calm,Calm,-,N/A,,Mostly Cloudy,0,2013-07-15 08:07:00
4:17 AM,71.1,70.0,96,30.18,5.0,Calm,Calm,-,N/A,,Overcast,0,2013-07-15 08:17:00
4:52 AM,72.0,70.0,93,30.18,8.0,Calm,Calm,-,N/A,,Overcast,0,2013-07-15 08:52:00
5:18 AM,71.1,69.1,93,30.18,1.5,Calm,Calm,-,N/A,,Mostly Cloudy,0,2013-07-15 09:18:00
5:25 AM,71.1,69.1,93,30.18,1.2,Calm,Calm,-,N/A,,Mostly Cloudy,0,2013-07-15 09:25:00
5:37 AM,71.1,70.0,96,30.18,0.8,Calm,Calm,-,N/A,,Mostly Cloudy,0,2013-07-15 09:37:00
5:41 AM,71.1,70.0,96,30.18,1.8,Calm,Calm,-,N/A,,Overcast,0,2013-07-15 09:41:00
5:43 AM,71.1,70.0,96,30.18,3.0,Calm,Calm,-,N/A,,Overcast,0,2013-07-15 09:43:00
5:47 AM,71.6,69.8,94,30.18,1.8,Calm,Calm,-,N/A,,Overcast,0,2013-07-15 09:47:00
5:52 AM,72.0,71.1,97,30.18,1.8,Calm,Calm,-,N/A,,Overcast,0,2013-07-15 09:52:00
5:56 AM,73.0,71.1,93,30.18,3.0,Calm,Calm,-,N/A,,Overcast,0,2013-07-15 09:56:00
6:52 AM,75.9,73.9,94,30.19,7.0,Calm,Calm,-,N/A,,Overcast,0,2013-07-15 10:52:00
7:52 AM,79.0,73.9,84,30.19,10.0,Calm,Calm,-,N/A,,Clear,0,2013-07-15 11:52:00
8:52 AM,82.9,73.9,74,30.18,10.0,NNW,3.5,-,N/A,,Clear,330,2013-07-15 12:52:00
9:52 AM,86.0,73.9,67,30.17,10.0,Calm,Calm,-,N/A,,Clear,0,2013-07-15 13:52:00
10:52 AM,87.1,72.0,61,30.17,10.0,North,-9999.0,-,N/A,,Partly Cloudy,0,2013-07-15 14:52:00
11:52 AM,89.1,72.0,57,30.15,10.0,Variable,4.6,-,N/A,,Scattered Clouds,0,2013-07-15 15:52:00
12:52 PM,90.0,70.0,52,30.14,10.0,West,3.5,-,N/A,,Mostly Cloudy,270,2013-07-15 16:52:00
1:52 PM,91.0,70.0,50,30.13,10.0,Calm,Calm,-,N/A,,Scattered Clouds,0,2013-07-15 17:52:00
2:52 PM,93.0,70.0,47,30.12,10.0,Variable,3.5,-,N/A,,Mostly Cloudy,0,2013-07-15 18:52:00
3:52 PM,91.0,72.0,53,30.10,10.0,East,5.8,-,N/A,,Mostly Cloudy,90,2013-07-15 19:52:00
4:52 PM,89.1,75.0,63,30.10,10.0,SSE,6.9,-,N/A,,Scattered Clouds,150,2013-07-15 20:52:00
5:52 PM,86.0,73.9,67,30.09,10.0,SSE,5.8,-,N/A,,Mostly Cloudy,160,2013-07-15 21:52:00
6:52 PM,84.9,73.9,69,30.10,10.0,SE,5.8,-,N/A,,Clear,140,2013-07-15 22:52:00
7:52 PM,81.0,73.9,79,30.10,10.0,SSE,3.5,-,N/A,,Clear,150,2013-07-15 23:52:00
8:52 PM,79.0,73.0,82,30.10,10.0,SSE,3.5,-,N/A,,Clear,160,2013-07-16 00:52:00
9:52 PM,75.0,73.0,94,30.12,5.0,Calm,Calm,-,N/A,,Partly Cloudy,0,2013-07-16 01:52:00
10:52 PM,73.0,71.1,93,30.12,4.0,Calm,Calm,-,N/A,,Clear,0,2013-07-16 02:52:00
11:10 PM,73.0,71.1,93,30.11,2.5,Calm,Calm,-,N/A,,Clear,0,2013-07-16 03:10:00
11:21 PM,73.0,71.1,93,30.11,1.0,Calm,Calm,-,N/A,,Clear,0,2013-07-16 03:21:00
11:30 PM,72.0,71.1,97,30.11,0.5,Calm,Calm,-,N/A,Fog,Fog,0,2013-07-16 03:30:00
11:44 PM,72.0,70.0,93,30.11,1.0,Calm,Calm,-,N/A,,Clear,0,2013-07-16 03:44:00
11:52 PM,72.0,70.0,93,30.11,0.5,Calm,Calm,-,N/A,Fog,Fog,0,2013-07-16 03:52:00